AV279 Weather Reports


Display with metric or nautical units.
time (UTC)temp
F
wind
direction
speed
MPH
gust
MPH
rain 1hr
in
rain 24hr
in
rain mn
in
humidity
%
barometer
mb
20260902052451 58 203 1.0 2.0 0.00 0.00 0.00 92 1019.3
20260902051442 58 203 3.0 4.0 0.00 0.00 0.00 92 1019.2
20260902050420 58 203 1.0 2.0 0.00 0.00 0.00 92 1019.3
20260902045419 58 225 3.0 4.0 0.00 0.00 0.00 92 1019.3
20260902044451 58 225 3.0 6.0 0.00 0.00 0.00 92 1019.3
20260902043419 58 225 3.0 4.0 0.00 0.00 0.00 91 1019.2
20260902042509 59 225 2.0 4.0 0.00 0.00 0.00 91 1019.2
20260902041511 59 225 4.0 5.0 0.00 0.00 0.00 91 1019.2
20260902040440 59 248 2.0 2.0 0.00 0.00 0.00 91 1019.1
20260902035419 59 225 3.0 4.0 0.00 0.00 0.00 91 1019.1
20260902034421 59 225 2.0 3.0 0.00 0.00 0.00 91 1019.0
20260902033429 59 203 3.0 5.0 0.00 0.00 0.00 91 1019.1
20260902032500 58 225 3.0 4.0 0.00 0.00 0.00 91 1019.1
20260902031420 58 225 2.0 4.0 0.00 0.00 0.00 91 1019.1
20260902030430 58 225 3.0 4.0 0.00 0.00 0.00 91 1019.0
20260902025419 58 225 3.0 5.0 0.00 0.00 0.00 91 1019.2
20260902024433 59 225 3.0 4.0 0.00 0.00 0.00 91 1019.2
20260902023419 59 225 2.0 3.0 0.00 0.00 0.00 90 1019.2
20260902022440 59 225 2.0 3.0 0.00 0.00 0.00 90 1019.4
20260902021419 59 225 2.0 2.0 0.00 0.00 0.00 90 1019.4
20260902020419 59 225 2.0 4.0 0.00 0.01 0.00 90 1019.5
20260902015419 59 225 2.0 3.0 0.00 0.01 0.00 90 1019.5
20260902014419 59 225 2.0 4.0 0.00 0.01 0.00 90 1019.5
20260902013419 59 225 3.0 5.0 0.00 0.01 0.00 90 1019.5
20260902012452 59 225 3.0 4.0 0.00 0.01 0.00 90 1019.6
20260902011419 59 225 2.0 4.0 0.00 0.01 0.00 90 1019.6
20260902010431 59 225 2.0 4.0 0.00 0.01 0.00 89 1019.5
20260902005442 59 225 2.0 2.0 0.00 0.01 0.00 89 1019.7
20260902004420 59 203 1.0 3.0 0.00 0.01 0.00 89 1019.7
20260902003419 59 225 1.0 2.0 0.00 0.01 0.00 89 1019.7
20260902002418 59 225 2.0 3.0 0.00 0.01 0.00 89 1019.5
20260902001441 59 225 2.0 4.0 0.00 0.01 0.00 89 1019.6
20260902000453 59 203 1.0 3.0 0.00 0.01 0.00 88 1019.6
20260901235439 59 203 2.0 3.0 0.00 0.01 0.01 88 1019.5
20260901234441 59 180 3.0 4.0 0.00 0.01 0.01 88 1019.5
20260901233421 59 203 2.0 2.0 0.00 0.01 0.01 88 1019.9
20260901232419 59 225 3.0 5.0 0.00 0.01 0.01 88 1019.9
20260901231419 59 203 2.0 4.0 0.00 0.01 0.01 88 1020.0
20260901230420 58 203 2.0 3.0 0.00 0.01 0.01 88 1020.0
20260901225419 59 248 2.0 3.0 0.00 0.01 0.01 88 1020.0
20260901224432 58 225 2.0 3.0 0.00 0.01 0.01 88 1020.0
20260901223441 59 225 1.0 2.0 0.00 0.01 0.01 87 1020.2
20260901222429 59 248 1.0 2.0 0.00 0.01 0.01 87 1020.1
20260901221429 59 225 2.0 3.0 0.00 0.01 0.01 87 1020.1
20260901220658 59 225 2.0 3.0 0.00 0.01 0.01 87 1020.1
20260901220118 59 225 3.0 4.0 0.00 0.01 0.01 87 1020.1
20260901215118 59 0.0 1.0 0.00 0.01 0.01 86 1020.0
20260901214150 59 225 1.0 2.0 0.00 0.01 0.01 86 1020.0
20260901213101 60 225 2.0 3.0 0.00 0.01 0.01 85 1020.1
20260901212129 60 203 2.0 4.0 0.00 0.01 0.01 85 1020.3
20260901211118 60 225 2.0 4.0 0.00 0.01 0.01 85 1020.4
20260901210118 60 203 2.0 3.0 0.00 0.01 0.01 84 1020.3
20260901205118 60 225 2.0 3.0 0.00 0.02 0.01 84 1020.3
20260901204118 60 248 1.0 4.0 0.00 0.05 0.01 83 1020.5
20260901203119 60 225 2.0 3.0 0.00 0.17 0.01 83 1020.3
20260901202129 61 203 1.0 2.0 0.00 0.18 0.01 82 1020.3
20260901201149 61 0.0 0.0 0.00 0.18 0.01 82 1020.3
20260901200118 61 225 2.0 3.0 0.00 0.18 0.01 81 1020.7
20260901195120 61 0.0 0.0 0.00 0.18 0.01 81 1020.5
20260901194118 62 203 1.0 2.0 0.00 0.18 0.01 80 1020.5
20260901193140 62 225 1.0 2.0 0.00 0.18 0.01 80 1020.6
20260901192201 62 0.0 1.0 0.00 0.18 0.01 79 1020.5
20260901191118 63 225 2.0 3.0 0.00 0.18 0.01 78 1020.5
20260901190118 63 0.0 1.0 0.00 0.18 0.01 77 1020.4
20260901185138 63 225 1.0 2.0 0.00 0.18 0.01 76 1020.3
20260901184317 64 0.0 1.0 0.00 0.18 0.01 75 1020.2
20260901183420 64 0.0 1.0 0.00 0.18 0.01 74 1020.2
20260901182420 64 0.0 1.0 0.00 0.18 0.01 73 1020.0
20260901181418 65 248 1.0 2.0 0.00 0.18 0.01 72 1020.0
20260901180523 65 225 1.0 2.0 0.00 0.18 0.01 72 1020.1
20260901175420 65 225 1.0 2.0 0.00 0.18 0.01 71 1020.0
20260901174441 66 225 2.0 3.0 0.00 0.18 0.01 70 1020.0
20260901173430 66 248 3.0 4.0 0.00 0.18 0.01 68 1019.9
20260901172438 67 248 1.0 2.0 0.00 0.18 0.01 67 1019.9
20260901171420 67 248 3.0 4.0 0.00 0.18 0.01 66 1019.9
20260901170420 67 248 1.0 2.0 0.00 0.18 0.01 65 1020.1
20260901165419 68 225 2.0 3.0 0.00 0.18 0.01 64 1020.1
20260901164419 68 248 4.0 8.0 0.00 0.18 0.01 63 1020.1
20260901163440 68 270 2.0 3.0 0.00 0.18 0.01 63 1020.1
20260901162420 68 293 3.0 6.0 0.00 0.18 0.01 63 1020.1
20260901161420 69 248 5.0 8.0 0.00 0.18 0.01 62 1020.1
20260901160420 69 225 4.0 7.0 0.00 0.18 0.01 64 1020.1
20260901155430 69 225 3.0 5.0 0.00 0.18 0.01 64 1020.1
20260901154420 69 248 3.0 5.0 0.00 0.18 0.01 64 1019.9
20260901153430 69 248 2.0 3.0 0.00 0.18 0.01 65 1020.0
20260901152441 70 225 3.0 5.0 0.00 0.18 0.01 62 1020.1
20260901151420 70 203 3.0 5.0 0.00 0.18 0.01 60 1020.0
20260901150420 70 248 3.0 8.0 0.00 0.18 0.01 60 1020.0
20260901145430 70 270 1.0 2.0 0.00 0.18 0.01 60 1020.0
20260901144502 70 248 3.0 7.0 0.00 0.18 0.01 60 1020.1
20260901143440 70 203 5.0 8.0 0.00 0.18 0.01 57 1020.0
20260901142419 70 180 2.0 4.0 0.00 0.18 0.01 58 1020.1
20260901141419 70 293 2.0 3.0 0.00 0.18 0.01 59 1020.1
20260901140420 70 203 1.0 2.0 0.00 0.18 0.01 59 1020.1
20260901135420 70 293 2.0 4.0 0.00 0.18 0.01 59 1020.1
20260901134420 71 248 1.0 4.0 0.00 0.18 0.01 57 1020.3
20260901133618 72 248 5.0 8.0 0.00 0.18 0.01 57 1020.3
20260901132800 73 225 5.0 8.0 0.00 0.18 0.01 56 1020.3
20260901131719 72 248 2.0 3.0 0.00 0.18 0.01 56 1020.4
20260901130720 72 248 4.0 6.0 0.00 0.18 0.01 56 1020.4
20260901125847 72 270 2.0 4.0 0.00 0.18 0.01 56 1020.5
20260901125603 72 293 2.0 3.0 0.00 0.18 0.01 56 1020.4
20260901124530 71 270 2.0 4.0 0.00 0.18 0.01 59 1020.3
20260901123520 72 225 4.0 6.0 0.00 0.18 0.01 60 1020.5
20260901122550 71 270 3.0 6.0 0.00 0.18 0.01 61 1020.2
20260901121519 71 203 2.0 4.0 0.00 0.18 0.01 61 1020.3
20260901120550 70 45 2.0 4.0 0.00 0.18 0.01 62 1020.4
20260901115519 71 270 3.0 7.0 0.00 0.18 0.01 65 1020.5
20260901114519 70 203 2.0 5.0 0.00 0.18 0.01 67 1020.5
20260901113530 69 158 2.0 4.0 0.00 0.18 0.01 66 1020.5
20260901112519 69 203 1.0 2.0 0.00 0.18 0.01 66 1020.5
20260901111559 70 225 2.0 3.0 0.00 0.18 0.01 64 1020.7
20260901110550 70 293 5.0 8.0 0.00 0.18 0.01 65 1020.6
20260901105611 70 225 2.0 4.0 0.00 0.18 0.01 65 1020.5
20260901104716 70 225 3.0 5.0 0.00 0.18 0.01 67 1020.5
20260901103851 70 225 2.0 3.0 0.00 0.18 0.01 67 1020.5
20260901102819 70 248 4.0 8.0 0.00 0.18 0.01 67 1020.5
20260901101840 70 225 3.0 4.0 0.00 0.18 0.01 67 1020.5
20260901100819 70 293 2.0 3.0 0.00 0.18 0.01 69 1020.4
20260901095819 68 293 3.0 8.0 0.00 0.18 0.01 71 1020.4
20260901094830 67 315 1.0 2.0 0.00 0.18 0.01 76 1020.5
20260901093819 67 270 2.0 3.0 0.00 0.18 0.01 73 1020.6
20260901092830 68 270 1.0 4.0 0.00 0.18 0.01 74 1020.5
20260901091819 68 270 3.0 7.0 0.00 0.18 0.01 74 1020.4
20260901090819 68 158 1.0 2.0 0.00 0.18 0.01 78 1020.2
20260901085819 66 0.0 1.0 0.00 0.18 0.01 79 1020.2
20260901084819 66 270 1.0 3.0 0.00 0.18 0.01 79 1020.1
20260901083839 66 248 3.0 8.0 0.00 0.18 0.01 82 1019.9
20260901082839 65 248 1.0 2.0 0.00 0.18 0.01 82 1019.9
20260901081819 66 270 1.0 2.0 0.00 0.18 0.01 83 1020.0
20260901080819 67 180 2.0 5.0 0.00 0.18 0.01 85 1019.8
20260901075841 66 270 1.0 2.0 0.00 0.18 0.01 90 1019.7
20260901074819 65 293 1.0 1.0 0.00 0.18 0.01 92 1019.6
20260901073819 64 0.0 1.0 0.00 0.18 0.01 94 1019.6
20260901072819 62 270 1.0 1.0 0.00 0.18 0.01 94 1019.5
20260901072047 61 248 1.0 2.0 0.00 0.18 0.01 94 1019.4
20260901071519 61 225 1.0 2.0 0.00 0.18 0.01 93 1019.3
20260901070519 61 0.0 1.0 0.00 0.18 0.01 94 1019.2
20260901065530 60 293 1.0 2.0 0.00 0.19 0.01 94 1019.2
20260901064518 60 0.0 1.0 0.00 0.19 0.01 94 1019.1
20260901063519 60 0.0 1.0 0.00 0.19 0.01 94 1019.1
20260901062717 59 225 1.0 2.0 0.00 0.20 0.01 94 1019.1
20260901062019 59 225 1.0 2.0 0.00 0.20 0.01 93 1019.0
20260901061215 59 225 2.0 2.0 0.00 0.20 0.01 93 1018.9
20260901060751 59 0.0 0.0 0.00 0.20 0.01 93 1018.9
20260901055739 59 225 2.0 3.0 0.00 0.20 0.01 93 1018.8
20260901054719 59 225 1.0 2.0 0.00 0.21 0.01 93 1018.8
20260901053719 59 0.0 0.0 0.00 0.21 0.01 93 1018.7
20260901052718 59 0.0 0.0 0.00 0.21 0.01 93 1018.7